Location: Chequamegon National Forest
(46.1070°N, 90.8420°W)
Time: 23:09:12
(UTC-05:00)

Daily predictions for brighter satellites

Satellite Brightness Start Highest point End
(mag) Time Altitude Azimuth Time Altitude Azimuth Time Altitude Azimuth
Cosmos 1452 Rocket 3.6 21:27:30 10° NNW 21:32:50 87° WSW 21:38:07 10° SSE
MetOp-B 4.4 21:27:46 10° SSE 21:33:00 59° ENE 21:38:17 10° N
Cosmos 1943 3.9 21:30:26 10° NW 21:35:56 52° WSW 21:41:22 10° S
Cosmos 1420 Rocket 4.0 21:31:02 10° NNW 21:36:15 88° ENE 21:41:26 10° SSE
Spot 2 Rocket 4.2 21:34:46 10° S 21:39:41 53° W 21:44:39 10° NNW
Cosmos 1346 Rocket 3.7 21:39:02 10° N 21:42:43 35° ENE 21:46:26 10° SE
COSMOS 2406 4.4 21:37:43 10° N 21:42:50 31° NE 21:47:54 10° ESE
BREEZE-M DEB (TANK) 3.9 21:35:05 10° SW 21:45:17 45° SSE 21:48:42 10° E
Cosmos 158 Rocket 4.1 21:42:38 10° SSW 21:47:58 87° WNW 21:53:12 10° NNE
SPOT 1/Viking Rocket 4.3 21:44:15 10° SE 21:48:59 39° ENE 21:53:45 10° N
H-2A R/B 2.2 21:44:08 10° SSE 21:49:23 80° ENE 21:54:49 10° NNW
ERS-2 4.1 21:48:14 10° SSW 21:51:21 26° W 21:54:30 10° NW
Cosmos 1726 3.6 21:52:29 10° NNE 21:55:33 23° ENE 21:58:22 11° SE
ARGOS 3.4 21:53:02 10° S 21:58:27 73° WSW 22:03:54 10° NNW
DMSP B5D2-2 4.5 21:54:30 10° NNE 21:59:31 44° E 22:04:29 10° S
Meteor 1-24 Rocket 4.0 21:55:22 10° S 22:01:17 61° E 22:07:14 10° NNE
Cosmos-2242 3.2 21:57:20 10° N 22:01:42 60° E 22:05:52 11° SSE
Cosmos 1269 Rocket 4.2 21:59:25 10° S 22:04:33 52° ESE 22:09:42 10° NNE
Cosmos 1437 2.7 22:03:17 10° N 22:06:27 71° ENE 22:09:11 13° SSE
Meteor 2-5 Rocket 4.0 22:01:04 10° SSW 22:07:02 84° W 22:12:59 10° N
Cosmos 1844 Rocket 3.1 22:02:00 10° S 22:07:17 42° ESE 22:12:35 10° NE
Resurs 01 Rocket 4.1 22:07:24 10° SW 22:10:26 18° W 22:13:30 10° NW
Cosmos 1331 Rocket 4.5 22:05:45 10° NNW 22:10:48 48° ENE 22:15:07 14° SE
Landsat 7 4.3 22:07:17 13° SE 22:11:22 48° ENE 22:15:57 10° N
SL-08 RB Rocket 4.2 22:10:42 10° S 22:15:17 60° W 22:19:56 10° NNW
Cosmos 1953 Rocket 3.6 22:11:29 10° S 22:15:50 87° W 22:20:15 10° N
Cosmos 2084 3.2 22:12:10 10° NW 22:16:02 81° NE 22:19:00 16° SE
USA 238 DEB 4.0 22:09:56 10° NW 22:17:03 67° NE 22:23:31 13° SE
USA 238 4.0 22:10:03 10° NW 22:17:09 67° NE 22:23:37 13° SE
Cosmos 1758 Rocket 4.1 22:17:15 10° SSW 22:21:41 63° WNW 22:26:05 10° N
ATLAS 3B R/B 3.0 22:16:32 10° NNW 22:23:07 56° NE 22:28:55 13° ESE
CZ-2C R/B 4.0 22:18:55 14° SE 22:23:34 41° ENE 22:28:57 10° N
Meteor 2-1 Rocket 4.4 22:18:10 10° N 22:24:06 71° ENE 22:29:07 15° SSE
Cosmos 494 Rocket 4.4 22:19:10 10° S 22:24:07 44° ESE 22:29:06 10° NNE
Cosmos 2082 Rocket 4.2 22:20:34 10° N 22:24:30 18° NE 22:28:24 10° E
Cosmos 1908 3.2 22:20:50 10° N 22:24:42 71° E 22:27:37 17° SSE
Helios 1A 2.9 22:26:51 16° SSE 22:30:13 88° ENE 22:34:27 10° NNW
Terra 2.3 22:27:13 17° SE 22:30:42 49° ENE 22:35:18 10° N
NOSS 3-2 (A) 4.4 22:23:56 10° NW 22:31:12 59° NE 22:38:29 13° ESE
Iridium 81 3.4 22:30:59 25° S 22:32:10 77° E 22:34:54 10° N
Cosmos 1833 Rocket 4.4 22:29:54 10° N 22:34:16 22° NE 22:38:35 10° E
Cosmos 2251 Rocket 4.4 22:33:43 17° SSE 22:36:50 30° E 22:41:27 10° NE
Cosmos 2263 Rocket 4.2 22:32:51 10° WSW 22:37:52 31° NW 22:42:54 10° N
Cosmos 1315 Rocket 4.1 22:35:00 10° SW 22:38:50 41° WNW 22:42:44 10° N
GENESIS II 4.2 22:36:08 10° SW 22:40:01 87° NW 22:43:58 10° NE
Cosmos 1745 Rocket 4.1 22:35:41 10° N 22:42:01 68° E 22:46:47 18° SSE
Spot 1 4.2 22:41:53 21° SSE 22:44:43 67° ENE 22:49:14 10° N
Helios 1B rocket 2.4 22:42:07 10° NNE 22:46:13 65° ESE 22:49:09 18° S
ATLAS 2AS CENTAUR R/B 3.0 22:38:48 10° SSW 22:46:38 76° ESE 22:54:46 10° NE
Cosmos 2285 Rocket 4.4 22:43:32 10° SSW 22:49:50 68° WNW 22:56:09 10° NNE
Cosmos 2221 3.3 22:46:51 10° N 22:50:57 39° ENE 22:53:10 22° SE
Cosmos 1340 2.6 22:47:46 10° N 22:51:35 85° E 22:53:42 25° SSE
ERS-1 Rocket 4.1 22:46:58 10° SSW 22:51:39 39° W 22:56:22 10° NNW
CZ-2C R/B 3.4 22:46:45 10° NNE 22:51:46 36° E 22:54:34 22° SSE
SPOT 5 3.5 22:50:02 15° S 22:54:09 56° W 22:59:20 10° NNW
NOSS 3-2 (C) 4.4 22:47:04 10° NW 22:54:22 60° NE 23:01:15 15° ESE
Timation 1 Rocket 4.3 22:50:42 10° SSW 22:56:38 83° ESE 23:02:39 10° NNE
Meteor 1-29 2.9 22:53:17 10° NNE 22:56:41 63° ESE 22:58:17 28° S
Cosmos 1626 3.5 22:56:30 21° ESE 22:57:24 23° E 23:00:24 10° NE
Cosmos 921 Rocket 3.7 22:54:32 10° NNW 22:58:52 50° WSW 23:01:51 19° S
Cosmos 1455 4.4 22:58:17 10° NE 23:00:18 14° ENE 23:01:48 12° E
Cosmos 1300 2.9 22:56:41 10° N 23:00:29 58° E 23:02:11 29° SSE
Meteor 1-21 Rocket 4.4 22:56:14 18° S 23:00:38 66° E 23:06:24 10° NNE
Cosmos 1674 3.7 23:00:48 10° SSW 23:04:24 45° WNW 23:08:07 10° N
Lacrosse 5 2.0 22:59:37 10° SW 23:04:41 77° NW 23:09:46 10° NE
S3M 4.1 23:04:32 12° SSW 23:10:25 79° W 23:16:51 10° N
Cosmos 1709 Rocket 4.1 23:09:34 10° N 23:15:47 63° ENE 23:19:27 25° SSE
CARTOSAT-1 4.1 23:13:18 22° SSW 23:15:53 52° W 23:20:08 10° NNW
Nimbus 7 Rocket 4.4 23:11:56 10° NNE 23:17:57 77° ESE 23:22:26 19° S
Cosmos 807 4.2 23:17:10 37° SSW 23:18:10 72° W 23:21:17 10° N
YAOGAN 11 4.2 23:16:59 27° S 23:19:26 79° WSW 23:24:01 10° NNW
SL-14 R/B 3.1 23:19:42 30° S 23:21:33 89° E 23:25:30 10° N
ALOS 2 4.5 23:20:27 14° E 23:22:42 21° ENE 23:25:57 10° NNE
NOSS 3-4 (A) 3.8 23:20:16 23° S 23:23:44 44° ESE 23:29:45 10° NE
Cosmos 2278 Rocket 2.3 23:20:26 24° S 23:23:47 56° ESE 23:29:20 10° NE
NOSS 3-4 (C) 3.8 23:20:26 23° S 23:23:49 44° ESE 23:29:51 10° NE
COSMOS 2406 3.8 23:21:49 10° NW 23:27:22 50° WSW 23:30:39 24° S
Aureole 3 Rocket 4.4 23:23:27 23° SSE 23:28:30 59° E 23:34:22 10° NNE
Iridium 75 4.2 23:26:25 10° N 23:29:15 69° E 23:29:18 69° E
H-2A R/B 4.5 23:26:29 10° WSW 23:29:28 15° W 23:32:30 10° NW
Cosmos 1726 3.9 23:27:37 10° NNW 23:30:46 26° W 23:32:56 16° SW
Cosmos 220 Rocket 4.1 23:31:15 21° SSW 23:34:01 74° WNW 23:38:15 10° NNE
CENTAUR R/B 3.6 23:26:27 10° NW 23:34:06 57° NE 23:41:25 14° ESE
Cosmos 1461 3.4 23:34:20 34° S 23:35:56 49° ESE 23:40:33 10° NE
Cosmos 1766 Rocket 4.4 23:37:39 30° SE 23:38:52 36° E 23:42:57 10° NNE
ADEOS Rocket 4.0 23:35:40 10° NE 23:40:48 30° E 23:43:06 24° SE
SL-8 R/B 3.6 23:37:16 10° WSW 23:42:05 72° SSE 23:46:54 10° ENE
COBE Rocket 4.0 23:37:42 10° NNE 23:42:44 68° E 23:45:03 33° S
APEX 3.7 23:42:38 10° NW 23:45:28 36° WSW 23:45:54 34° SW
Cosmos 2315 Rocket 4.0 23:41:43 26° S 23:45:30 84° E 23:51:54 10° N
USA 234 4.4 23:41:03 10° ENE 23:45:56 22° SE 23:46:17 22° SE
Cosmos 1076 Rocket 3.4 23:46:47 38° S 23:48:23 88° E 23:52:39 10° N
SL-27 R/B 3.4 23:45:13 10° N 23:48:42 40° ENE 23:49:37 33° ESE
RESURS DK-1 3.6 23:50:15 25° ESE 23:50:15 25° ESE 23:53:34 10° NE
Cosmos 1703 3.7 23:50:17 41° SE 23:50:58 46° E 23:54:43 10° NNE
Cosmos 1844 Rocket 4.2 23:46:05 10° WSW 23:51:15 35° NW 23:56:26 10° NNE
NOSS 2-2 (D) 3.8 23:53:57 40° SE 23:54:06 40° ESE 23:58:12 10° NE
H-2A R/B 3.5 23:53:56 20° E 23:55:32 25° ENE 23:58:56 10° N
